Weather History for Huntington, WV

Change the Weather History Date:

Thursday, March 20, 2014

  Actual Average Record
Temperature  
Mean Temperature 47 °F 47 °F  
Max Temperature 55 °F 58 °F 87 °F (1921)
Min Temperature 39 °F 36 °F 16 °F (1923)
Degree Days  
Heating Degree Days 18 18  
Month to date heating degree days 491 422  
Since 1 July heating degree days 4252 3923  
Cooling Degree Days 0 0  
Month to date cooling degree days 0 0  
Year to date cooling degree days 0 0  
Moisture  
Dew Point 28 °F    
Average Humidity 48    
Maximum Humidity 66    
Minimum Humidity 29    
Precipitation  
Precipitation 0.00 in 0.13 in 3.26 in (2002)
Month to date precipitation 1.76 2.52  
Year to date precipitation 9.12 8.56  
Snow  
Snow 0.00 in - - ()
Month to date snowfall 7.5  
Since 1 September snowfall 35.7  
Snow Depth 0.00 in    
Sea Level Pressure  
Sea Level Pressure 30.05 in    
Wind  
Wind Speed 9 mph (West)    
Max Wind Speed 16 mph    
Max Gust Speed 24 mph    
Visibility 10 miles    
Events      
T = Trace of Precipitation, MM = Missing Value Source: NWS Daily Summary

Daily Weather History Graph

Daily Weather History Graph

Search for Another Location

Airport:

Trip Planner

Search our weather history database for the weather conditions in past years. The results will help you decide how hot, cold, wet, or windy it might be!

Date:

Astronomy

Mar. 20, 2014 Rise Set
Actual Time 7:33 AM EDT 7:42 PM EDT
Civil Twilight 7:07 AM EDT 8:08 PM EDT
Nautical Twilight 6:36 AM EDT 8:39 PM EDT
Astronomical Twilight 6:05 AM EDT 9:10 PM EDT
Moon 11:57 PM EDT (3/20) 9:42 AM EDT (3/20)
Length of Visible Light 13h 01m
Length of Day
12h 08m
Waning Gibbous, 84% of the Moon is Illuminated
Mar 20
Waning Gibbous
Mar 23
Last Quarter
Mar 30
New
Apr 7
First Quarter
Apr 15
Full

Hourly Weather History & Observations

Time (EDT) Temp. Windchill Dew Point Humidity Pressure Visibility Wind Dir Wind Speed Gust Speed Precip Events Conditions
12:51 AM 48.0 °F - 37.0 °F 66% 29.98 in 10.0 mi West 10.4 mph - N/A   Overcast
1:51 AM 46.0 °F 41.9 °F 36.0 °F 68% 29.99 in 10.0 mi West 8.1 mph 18.4 mph N/A   Overcast
2:41 AM 45.0 °F 39.7 °F 35.1 °F 68% 30.00 in 10.0 mi West 10.4 mph 18.4 mph N/A   Overcast
2:51 AM 44.1 °F 37.7 °F 33.1 °F 65% 30.00 in 10.0 mi West 12.7 mph 20.7 mph N/A   Overcast
3:51 AM 43.0 °F 37.7 °F 30.0 °F 60% 30.01 in 10.0 mi West 9.2 mph - N/A   Overcast
4:51 AM 42.1 °F 37.7 °F 28.9 °F 60% 30.02 in 10.0 mi West 6.9 mph - N/A   Overcast
5:51 AM 41.0 °F 33.5 °F 30.0 °F 65% 30.04 in 10.0 mi West 13.8 mph 23.0 mph N/A   Overcast
6:51 AM 39.9 °F 32.9 °F 27.0 °F 60% 30.06 in 10.0 mi West 11.5 mph - N/A   Overcast
7:51 AM 39.0 °F 31.8 °F 27.0 °F 62% 30.07 in 10.0 mi West 11.5 mph - N/A   Overcast
8:51 AM 39.0 °F 33.4 °F 28.9 °F 67% 30.10 in 10.0 mi West 8.1 mph - N/A   Overcast
9:51 AM 39.9 °F 34.5 °F 28.0 °F 63% 30.11 in 10.0 mi West 8.1 mph - N/A   Overcast
10:51 AM 43.0 °F 38.2 °F 27.0 °F 53% 30.12 in 10.0 mi WNW 8.1 mph 17.3 mph N/A   Mostly Cloudy
11:51 AM 44.1 °F 40.8 °F 27.0 °F 51% 30.11 in 10.0 mi Variable 5.8 mph 18.4 mph N/A   Clear
12:51 PM 48.0 °F - 27.0 °F 44% 30.11 in 10.0 mi WSW 12.7 mph 19.6 mph N/A   Clear
1:51 PM 50.0 °F - 27.0 °F 41% 30.09 in 10.0 mi West 8.1 mph 21.9 mph N/A   Scattered Clouds
2:51 PM 53.1 °F - 25.0 °F 34% 30.06 in 10.0 mi West 9.2 mph - N/A   Partly Cloudy
3:51 PM 53.1 °F - 23.0 °F 31% 30.05 in 10.0 mi West 10.4 mph 18.4 mph N/A   Scattered Clouds
4:51 PM 52.0 °F - 23.0 °F 32% 30.04 in 10.0 mi WNW 11.5 mph 17.3 mph N/A   Mostly Cloudy
5:51 PM 52.0 °F - 23.0 °F 32% 30.04 in 10.0 mi NW 11.5 mph 21.9 mph N/A   Scattered Clouds
6:51 PM 50.0 °F - 23.0 °F 35% 30.06 in 10.0 mi West 10.4 mph 19.6 mph N/A   Mostly Cloudy
7:51 PM 50.0 °F - 24.1 °F 36% 30.05 in 10.0 mi SW 8.1 mph - N/A   Mostly Cloudy
8:51 PM 46.9 °F - 25.0 °F 42% 30.04 in 10.0 mi SW 4.6 mph - N/A   Scattered Clouds
9:51 PM 46.9 °F - 25.0 °F 42% 30.05 in 10.0 mi SSW 4.6 mph - N/A   Overcast
10:51 PM 45.0 °F 42.6 °F 25.0 °F 46% 30.05 in 10.0 mi SSW 4.6 mph - N/A   Mostly Cloudy
11:51 PM 44.1 °F 40.8 °F 26.1 °F 49% 30.05 in 10.0 mi SSW 5.8 mph - N/A   Mostly Cloudy